History for Ft Lauderdale, FL

Friday, November 9, 2012 — View Current Conditions

Jump to Data:

Date:
Airport Code:
Recently Viewed Airport Codes: KFLL
Daily Summary
  Actual Average Record
Temperature
Mean Temperature 67°F 76°F  
Max Temperature 76°F 82°F 91°F (1958)
Min Temperature 57°F 71°F 45°F (1923)
Degree Days
Heating Degree Days 0 0  
Month to date heating degree days 2 0  
Since 1 July heating degree days 2 0  
Cooling Degree Days 2 11  
Month to date cooling degree days 50 110  
Year to date cooling degree days 4207 4304  
Growing Degree Days 16 (Base 50)    
Moisture
Dew Point 51°F    
Average Humidity 59    
Maximum Humidity 80    
Minimum Humidity 38    
Precipitation
Precipitation 0.00 in 0.12 in 1.04 in (1994)
Month to date precipitation 0.00 1.28  
Year to date precipitation 59.29 57.76  
Snow
Snow 0.00 in in in ()
Month to date snowfall 0.0  
Since 1 July snowfall 0.0  
Since 1 September snowfall 0.0  
Snow Depth 0.00 in    
Sea Level Pressure
Sea Level Pressure 30.15 in    
Wind
Wind Speed 12 mph (NNE)    
Max Wind Speed 22 mph    
Max Gust Speed 28 mph    
Visibility 10 miles    
Events      
T = Trace of Precipitation, MM = Missing Value Source: NWS Daily Summary

Show full METARS

(help) - Comma Delimited File

Hourly Observations

Time(EST) Temperature Dew Point Humidity Sea Level Pressure Visibility Wind Direction Wind Speed Gust Speed Precipitation Events Conditions
12:53 AM 60.1°F 51.1°F 72% 30.10 in 10.0 miles NW 8.1 mph - N/A   Scattered Clouds
1:53 AM 59.0°F 51.1°F 75% 30.10 in 10.0 miles NW 9.2 mph - N/A   Scattered Clouds
2:53 AM 59.0°F 51.1°F 75% 30.10 in 10.0 miles NNW 12.7 mph - N/A   Partly Cloudy
3:53 AM 57.9°F 51.1°F 78% 30.10 in 10.0 miles NNW 6.9 mph - N/A   Mostly Cloudy
4:53 AM 57.9°F 51.1°F 78% 30.11 in 10.0 miles NNW 8.1 mph - N/A   Partly Cloudy
5:53 AM 57.0°F 51.1°F 81% 30.12 in 10.0 miles NNW 9.2 mph - N/A   Partly Cloudy
6:53 AM 57.9°F 52.0°F 81% 30.14 in 10.0 miles NNW 8.1 mph - N/A   Partly Cloudy
7:53 AM 62.1°F 53.1°F 72% 30.16 in 10.0 miles North 8.1 mph - N/A   Partly Cloudy
8:53 AM 68.0°F 54.0°F 61% 30.18 in 10.0 miles North 8.1 mph - N/A   Partly Cloudy
9:53 AM 73.0°F 54.0°F 51% 30.19 in 10.0 miles NNE 10.4 mph - N/A   Partly Cloudy
10:53 AM 75.0°F 48.0°F 38% 30.19 in 10.0 miles NE 17.3 mph 23.0 mph N/A   Scattered Clouds
11:53 AM 73.9°F 52.0°F 46% 30.18 in 10.0 miles NE 16.1 mph 23.0 mph N/A   Mostly Cloudy
12:53 PM 75.9°F 50.0°F 40% 30.16 in 10.0 miles ENE 13.8 mph 23.0 mph N/A   Scattered Clouds
1:53 PM 75.0°F 48.0°F 38% 30.15 in 10.0 miles NE 17.3 mph 23.0 mph N/A   Partly Cloudy
2:53 PM 75.0°F 50.0°F 41% 30.14 in 10.0 miles NE 16.1 mph 21.9 mph N/A   Scattered Clouds
3:53 PM 73.0°F 52.0°F 48% 30.14 in 10.0 miles ENE 12.7 mph 21.9 mph N/A   Mostly Cloudy
4:53 PM 73.0°F 48.9°F 42% 30.14 in 10.0 miles NNE 16.1 mph 20.7 mph N/A   Mostly Cloudy
5:53 PM 72.0°F 51.1°F 48% 30.15 in 10.0 miles ENE 13.8 mph 23.0 mph N/A   Mostly Cloudy
6:53 PM 71.1°F 50.0°F 47% 30.16 in 10.0 miles NE 15.0 mph 19.6 mph N/A   Mostly Cloudy
7:53 PM 71.1°F 51.1°F 49% 30.17 in 10.0 miles ENE 16.1 mph 21.9 mph N/A   Overcast
8:53 PM 71.1°F 50.0°F 47% 30.18 in 10.0 miles NE 11.5 mph - N/A   Overcast
9:53 PM 72.0°F 52.0°F 49% 30.19 in 10.0 miles NE 13.8 mph - N/A   Overcast
10:53 PM 71.1°F 52.0°F 51% 30.19 in 10.0 miles East 15.0 mph 20.7 mph N/A   Mostly Cloudy
11:53 PM 71.1°F 50.0°F 47% 30.18 in 10.0 miles East 10.4 mph 21.9 mph N/A   Mostly Cloudy